SM6KNE Weather Reports


Display with metric or nautical units.
time (UTC)temp
F
wind
direction
speed
MPH
gust
MPH
rain 1hr
in
rain 24hr
in
rain mn
in
humidity
%
barometer
mb
20260831172047 62 0.0 0.0 0.00 0.00 0.00 91 1007.1
20260831171103 62 0.0 0.0 0.00 0.00 0.00 90 1007.1
20260831165044 62 0.0 0.0 0.00 0.00 0.00 89 1007.1
20260831164043 63 0.0 0.0 0.00 0.00 0.00 88 1007.1
20260831163059 63 0.0 0.0 0.00 0.00 0.00 88 1007.1
20260831162024 63 0.0 0.0 0.00 0.00 0.00 87 1007.1
20260831161047 63 0.0 0.0 0.00 0.00 0.00 86 1007.1
20260831160043 63 0.0 0.0 0.00 0.00 0.00 85 1007.1
20260831155024 64 0.0 0.0 0.00 0.00 0.00 84 1007.1
20260831154045 63 0.0 0.0 0.00 0.00 0.00 82 1007.1
20260831153047 63 0.0 0.0 0.00 0.00 0.00 81 1007.1
20260831152043 63 0.0 0.0 0.00 0.00 0.00 79 1007.1
20260831151037 64 0.0 0.0 0.00 0.00 0.00 77 1007.1
20260831150035 65 0.0 0.0 0.00 0.00 0.00 76 1007.1
20260831145019 66 0.0 0.0 0.00 0.00 0.00 75 1007.1
20260831144043 67 0.0 0.0 0.00 0.00 0.00 73 1007.1
20260831143029 67 248 0.0 1.0 0.00 0.00 0.00 72 1007.1
20260831142043 68 0.0 0.0 0.00 0.00 0.00 71 1007.1
20260831141034 69 0.0 0.0 0.00 0.00 0.00 70 1007.1
20260831135035 71 0.0 0.0 0.00 0.00 0.00 67 1007.1
20260831134023 74 0.0 0.0 0.00 0.00 0.00 65 1007.1
20260831133043 77 268 2.0 4.0 0.00 0.00 0.00 61 1007.1
20260831132043 76 0.0 0.0 0.00 0.00 0.00 65 1007.1
20260831131027 72 248 1.0 2.0 0.00 0.00 0.00 67 1007.1
20260831130101 72 220 1.0 5.0 0.00 0.00 0.00 67 1007.1
20260831125037 70 290 3.0 6.0 0.00 0.00 0.00 70 1007.1
20260831124028 69 248 1.0 4.0 0.00 0.00 0.00 71 1007.1
20260831123044 70 263 1.0 5.0 0.00 0.00 0.00 69 1007.1
20260831122017 71 259 6.0 8.0 0.00 0.00 0.00 67 1007.1
20260831121015 70 244 3.0 6.0 0.00 0.00 0.00 69 1007.1
20260831120104 70 269 3.0 6.0 0.00 0.00 0.00 70 1007.1
20260831115059 70 268 4.0 8.0 0.00 0.00 0.00 70 1007.1
20260831114043 71 248 5.0 6.0 0.00 0.00 0.00 71 1007.1
20260831113043 68 222 1.0 5.0 0.00 0.00 0.00 74 1007.1
20260831112045 67 293 1.0 4.0 0.00 0.00 0.00 74 1007.1
20260831111042 68 281 1.0 2.0 0.00 0.00 0.00 74 1007.1
20260831110043 67 266 1.0 2.0 0.00 0.00 0.00 75 1007.1
20260831105043 68 292 1.0 4.0 0.00 0.00 0.00 75 1007.1
20260831104043 68 275 1.0 3.0 0.00 0.00 0.00 76 1007.1
20260831103037 67 260 6.0 7.0 0.00 0.00 0.00 77 1007.1
20260831102055 67 248 6.0 11.0 0.00 0.00 0.00 78 1007.1
20260831101018 65 248 2.0 3.0 0.00 0.00 0.00 79 1007.1
20260831100043 65 264 6.0 8.0 0.00 0.00 0.00 78 1007.1
20260831095131 66 280 6.0 10.0 0.00 0.00 0.00 79 1007.1
20260831094016 65 257 6.0 6.0 0.00 0.00 0.00 79 1007.1
20260831093103 65 254 4.0 6.0 0.00 0.00 0.00 81 1007.1
20260831092043 0 248 6.0 7.0 0.00 0.00 0.00 1007.1
20260831091043 0 237 5.0 8.0 0.00 0.00 0.00 1007.1
20260831090043 62 265 6.0 6.0 0.00 0.00 0.00 83 1007.1
20260831085044 63 256 6.0 9.0 0.00 0.00 0.00 84 1007.1
20260831084043 62 258 5.0 8.0 0.00 0.00 0.00 86 1007.1
20260831083045 0 255 5.0 7.0 0.00 0.00 0.00 1007.1
20260831082104 0 248 6.0 7.0 0.00 0.00 0.00 1007.1
20260831081043 0 251 5.0 8.0 0.00 0.00 0.00 1007.1
20260831080044 0 249 6.0 6.0 0.00 0.00 0.00 1007.1
20260831075106 0 263 6.0 8.0 0.00 0.00 0.00 1007.1
20260831074018 0 248 8.0 9.0 0.00 0.00 0.00 1007.1
20260831073043 0 257 7.0 8.0 0.00 0.00 0.00 1007.1
20260831072042 0 268 7.0 10.0 0.00 0.00 0.00 1007.1
20260831071043 61 260 5.0 7.0 0.00 0.00 0.00 89 1007.1
20260831070121 61 320 2.0 9.0 0.00 0.00 0.00 89 1007.1
20260831065025 61 245 4.0 8.0 0.00 0.00 0.00 90 1007.1
20260831064046 60 248 5.0 7.0 0.00 0.00 0.00 90 1007.1
20260831063044 0 265 4.0 6.0 0.00 0.00 0.00 1007.1
20260831062043 0 213 4.0 6.0 0.00 0.00 0.00 1007.1
20260831061041 0 270 2.0 6.0 0.00 0.00 0.00 1007.1
20260831060125 0 203 1.0 4.0 0.00 0.00 0.00 1007.1
20260831055043 0 235 4.0 7.0 0.00 0.00 0.00 1007.1
20260831054036 0 0.0 0.0 0.00 0.00 0.00 1007.1
20260831053104 0 293 2.0 6.0 0.00 0.00 0.00 1007.1
20260831052043 0 236 2.0 4.0 0.00 0.00 0.00 1007.1
20260831051030 0 225 1.0 3.0 0.00 0.00 0.00 1007.1
20260831050028 0 285 2.0 7.0 0.00 0.00 0.00 1006.0
20260831045026 0 244 3.0 5.0 0.00 0.00 0.00 1007.1
20260831044043 58 263 1.0 4.0 0.00 0.00 0.00 94 1007.1
20260831043046 58 260 2.0 5.0 0.00 0.00 0.00 94 1006.0
20260831042020 58 192 2.0 4.0 0.00 0.00 0.00 94 1007.1
20260831041044 58 250 2.0 3.0 0.00 0.00 0.00 94 1007.1
20260831040043 58 277 1.0 2.0 0.00 0.00 0.00 94 1006.0
20260831035027 58 23 0.0 1.0 0.00 0.00 0.00 94 1006.0
20260831034043 58 0.0 0.0 0.00 0.00 0.00 94 1006.0
20260831033043 58 0.0 0.0 0.00 0.00 0.00 94 1006.0
20260831032025 58 279 2.0 4.0 0.00 0.00 0.00 95 1006.0
20260831031103 58 0.0 0.0 0.00 0.00 0.00 95 1006.0
20260831030107 58 293 0.0 1.0 0.00 0.00 0.00 95 1006.0
20260831025044 58 0.0 0.0 0.00 0.00 0.00 95 1006.0
20260831024040 58 0.0 0.0 0.00 0.00 0.00 95 1006.0
20260831023043 58 293 0.0 3.0 0.00 0.00 0.00 95 1006.0
20260831022024 58 293 0.0 1.0 0.00 0.00 0.00 95 1006.0
20260831021026 58 293 0.0 1.0 0.00 0.00 0.00 95 1006.0
20260831020043 58 264 0.0 1.0 0.00 0.00 0.00 95 1006.0
20260831015022 58 248 0.0 4.0 0.00 0.00 0.00 95 1006.0
20260831014056 58 0.0 0.0 0.00 0.00 0.00 95 1006.0
20260831013123 58 248 0.0 1.0 0.00 0.00 0.00 95 1007.1
20260831012043 58 177 0.0 2.0 0.00 0.00 0.00 95 1006.0
20260831011034 58 192 1.0 3.0 0.00 0.00 0.00 95 1006.0
20260831010124 58 0.0 0.0 0.00 0.00 0.00 95 1006.0
20260831005046 58 293 0.0 2.0 0.00 0.00 0.00 95 1007.1
20260831004032 59 236 1.0 4.0 0.00 0.00 0.00 95 1007.1
20260831003043 59 338 0.0 1.0 0.00 0.00 0.00 95 1006.0
20260831002028 59 185 2.0 6.0 0.00 0.00 0.00 95 1006.0
20260831001030 59 249 2.0 5.0 0.00 0.00 0.00 95 1006.0
20260831000042 59 270 1.0 3.0 0.00 0.00 0.00 95 1006.0
20260830235036 59 261 4.0 8.0 0.00 0.00 0.00 95 1006.0
20260830234028 59 266 4.0 6.0 0.00 0.00 0.00 95 1006.0
20260830233104 59 265 7.0 10.0 0.00 0.00 0.00 95 1006.0
20260830232030 59 250 3.0 6.0 0.00 0.00 0.00 95 1006.0
20260830231026 59 289 6.0 8.0 0.00 0.00 0.00 95 1006.0
20260830230046 59 279 4.0 7.0 0.00 0.00 0.00 95 1006.0
20260830225043 59 245 3.0 5.0 0.00 0.00 0.00 95 1006.0
20260830224024 59 269 5.0 7.0 0.00 0.00 0.00 95 1006.0
20260830223046 59 274 5.0 8.0 0.00 0.00 0.00 95 1006.0
20260830222103 59 259 5.0 8.0 0.00 0.00 0.00 95 1006.0
20260830221023 59 248 5.0 6.0 0.00 0.00 0.00 96 1006.0
20260830220042 59 268 5.0 6.0 0.00 0.00 0.00 96 1006.0
20260830215042 59 251 6.0 8.0 0.00 0.00 0.00 96 1006.0
20260830214022 59 265 6.0 7.0 0.00 0.00 0.00 96 1006.0
20260830213103 59 261 4.0 6.0 0.00 0.00 0.00 96 1006.0
20260830212043 59 248 4.0 6.0 0.00 0.00 0.00 96 1006.0
20260830211022 59 257 3.0 5.0 0.00 0.00 0.00 96 1006.0
20260830210123 59 278 3.0 4.0 0.00 0.00 0.00 96 1006.0
20260830205043 59 252 4.0 6.0 0.00 0.00 0.00 96 1005.0
20260830204016 59 237 3.0 7.0 0.00 0.00 0.00 96 1005.0
20260830203024 59 249 5.0 8.0 0.00 0.00 0.00 96 1005.0
20260830202022 60 251 6.0 8.0 0.00 0.00 0.00 96 1005.0
20260830201035 60 271 6.0 10.0 0.00 0.00 0.00 97 1005.0
20260830200023 60 259 6.0 8.0 0.00 0.00 0.00 97 1005.0
20260830195016 60 256 5.0 6.0 0.00 0.00 0.00 96 1005.0
20260830194103 60 258 4.0 6.0 0.00 0.00 0.00 97 1005.0
20260830193043 61 256 6.0 9.0 0.00 0.00 0.00 97 1005.0
20260830192024 61 242 2.0 6.0 0.00 0.00 0.00 97 1005.0
20260830191043 61 256 5.0 7.0 0.00 0.00 0.00 96 1004.0
20260830190027 61 272 5.0 8.0 0.00 0.00 0.00 96 1004.0
20260830185044 60 263 3.0 7.0 0.00 0.00 0.00 96 1004.0
20260830184043 60 0.0 0.0 0.00 0.00 0.00 96 1004.0
20260830183045 60 248 0.0 1.0 0.00 0.00 0.00 96 1004.0
20260830182045 60 0.0 0.0 0.00 0.00 0.00 96 1004.0
20260830181038 60 248 1.0 4.0 0.00 0.00 0.00 96 1004.0
20260830180036 60 0.0 0.0 0.00 0.00 0.00 96 1004.0
20260830175034 60 0.0 0.0 0.00 0.00 0.00 96 1004.0
20260830174032 60 0.0 0.0 0.00 0.00 0.00 96 1004.0
20260830173022 60 0.0 0.0 0.00 0.00 0.00 96 1003.0